Content
SEND FEEDBACK

Daily
Averages
Monthly
Summary
United States of America

CHATTAROY, WASHINGTON


Home > North America > United States > Washington
Elevation: 180 meters     Latitude: 47 55N     Longitude: 117 07W

WEATHER
 
SELECT A DAY
Number of Records: 173,162;   Date Range: 1/7/99 - 12/17/14
 
SHARE

PRINT THIS DATA

[ ← Previous Day ]
WEATHER ALMANAC - 13 FEBRUARY, 2013
[ Next Day → ]
[ °F ]   °C
Weather ElementAverageHighLow
Temperature-0.9 °C6.1 °C (1:53 pm)-8 °C (11:19 pm)
Dewpoint-2.9 °C0.6 °C (12:53 am)-8 °C (11:19 pm)
Humidity87.2 %100 % (7:09 am)62 % (1:53 pm)
Barometer1024.4 hPa1029.5 hPa (11:53 pm)1020.7 hPa (7:09 am)
Wind Speed6.4 km/h16.7 km/h (12:53 am)
Weather ElementAverage
Visibility13.8 km
Wind DirectionESE (97.4 °)

Weather ElementTotal
Precipitation---
Heating Degree Days19.3 (Base 18.3)
Averaged from 31 records on 13 February, 2013
WEATHER CONDITIONS BREAKOUT
WIND DIRECTION BREAKOUT
WEATHER BY HOUR - 13 FEBRUARY, 2013
[ °F ]   °C
Local TimeTemperatureDewpointHumidityBarometerVisibilityWind DirectionWind SpeedGust SpeedPrecipitationEventsConditions
12:53 AM2.8 °C0.6 °C86 %1022 hPa16.1 kmSSE (160°)16.7 km/hOvercast
1:53 AM2.2 °C0.6 °C89 %1022 hPa16.1 kmSSE (160°)14.8 km/hPartly Cloudy
2:53 AM1.7 °C0 °C89 %1021.3 hPa16.1 kmSSE (160°)16.7 km/hClear
3:53 AM1.1 °C-0.6 °C89 %1021.7 hPa16.1 kmSE (140°)14.8 km/hClear
4:53 AM1.1 °C0 °C92 %1022 hPa16.1 kmSouth (180°)16.7 km/hClear
5:53 AM0 °C-1.1 °C92 %1022.4 hPa16.1 kmSSW (200°)14.8 km/hClear
6:53 AM-1.7 °C-2.2 °C96 %1023 hPa16.1 kmCalmClear
7:09 AM-4 °C-4 °C100 %1020.7 hPa1.3 kmNE (50°)7.4 km/hMist
7:18 AM-4 °C-4 °C100 %1021 hPa1.9 kmEast (90°)5.6 km/hClear
7:21 AM-4 °C-4 °C100 %1021 hPa6.4 kmESE (110°)5.6 km/hClear
7:53 AM-2.8 °C-3.9 °C92 %1023.4 hPa16.1 kmCalmClear
8:53 AM1.7 °C-0.6 °C85 %1023.4 hPa16.1 kmSE (140°)9.3 km/hClear
9:53 AM2.2 °C0 °C86 %1024.4 hPa16.1 kmSSW (200°)7.4 km/hClear
10:53 AM3.3 °C0 °C79 %1024.4 hPa16.1 kmSSW (200°)5.6 km/hClear
11:53 AM4.4 °C0 °C73 %1024 hPa16.1 kmSSW (210°)5.6 km/hClear
12:53 PM4.4 °C-0.6 °C70 %1023.7 hPa16.1 kmCalmClear
1:53 PM6.1 °C-0.6 °C62 %1023 hPa16.1 kmCalmClear
2:53 PM4.4 °C-0.6 °C70 %1023.7 hPa16.1 kmSouth (180°)9.3 km/hScattered Clouds
3:53 PM3.3 °C-1.1 °C73 %1024.4 hPa16.1 kmSSE (160°)7.4 km/hClear
4:53 PM3.3 °C-1.7 °C70 %1024.7 hPa16.1 kmSE (140°)7.4 km/hClear
5:53 PM1.7 °C-2.8 °C72 %1025.4 hPa16.1 kmESE (110°)5.6 km/hClear
6:53 PM-1.7 °C-3.9 °C85 %1026.4 hPa16.1 kmCalmClear
7:53 PM-2.2 °C-3.9 °C88 %1027.1 hPa16.1 kmCalmClear
8:53 PM-3.9 °C-5 °C92 %1027.4 hPa16.1 kmCalmClear
9:53 PM-5.6 °C-6.1 °C96 %1028.1 hPa16.1 kmCalmClear
10:53 PM-7.2 °C-7.2 °C100 %1028.8 hPa8 kmCalmClear
11:03 PM-6 °C-7 °C93 %1026.4 hPa4 kmWest (280°)5.6 km/hClear
11:10 PM-7 °C-7 °C100 %1026.4 hPa16.1 kmCalmClear
11:19 PM-8 °C-8 °C100 %1026.4 hPa4 kmENE (60°)9.3 km/hPartly Cloudy
11:33 PM-6 °C-7 °C93 %1026.8 hPa16.1 kmNNE (30°)5.6 km/hClear
11:53 PM-6.7 °C-7.8 °C92 %1029.5 hPa16.1 kmENE (60°)5.6 km/hClear
Hourly data recorded from KDEW, located 0 kilometers away from Chattaroy, Washington







STORIES FROM OUR PARTNERS